Torna al catalogo

CZ-6A DEB

AttivoPO
NORAD 60787·DEBRIS·🇨🇳 China

Lanciato Aug 6, 2024 da Taiyuan Satellite Launch Center

Loading…

Prossimi Passaggi (prossime 24 ore)

TLE

AggiornatoSource: Space-Track

Epoca: Sep 13, 2026, 17:16 UTC

1 60787U 24140FN  26256.71964981  .00000432  00000-0  19507-3 0  9999
2 60787  88.9671 262.1825 0053190 292.4018  67.1542 14.19784845108150

Traccia CZ-6A DEB in tempo reale con AllMySat

Download on the App Store